Погода в Лекнесе

Норвегия     68°08′17″N   13°36′13″E
темп.,
°C
ветер,
м/с
пор.,
м/с
влажн.,
%
обл.,
%
осадки,
мм/ч
давл.,
гПа
погр.,
м
6 мая, чт
чт623:00+4ссв4467100 0.0 1008318
02:00+4ссв4468100 0.0 1007358
05:00+4св3369100 0.1 1006270
08:00+3всв1161100 0.3 1006880
11:00+3юв1163100 0.1 1006836
14:00+3сз1069100 0.3 1006665
17:00+3с1171100 0.3 1005625
20:00+3св1169100 0.6 1005439
7 мая, пт
пт723:00+3всв116890 0.2 1005313
02:00+3в1169100 0.3 1004213
05:00+3вюв006989 0.0 1004257
08:00+3ссв016527 0.0 1004567
11:00+4с226452 0.1 1004861
14:00+4с336234 0.2 1004958
17:00+4с446031 0.1 1004991
20:00+4с4463100 0.1 1004970
8 мая, сб
сб823:00+3ссз3463100 0.1 1003949
02:00+3ссз3466100 0.2 1002890
05:00+2с3485100 0.4 1002446
08:00+3с4471100 0.6 1002811
11:00+3ссз3374100 0.1 1002623
14:00+4сз3369100 0.6 1003750
17:00+4зсз236890 0.6 1003739
20:00+4зсз236896 0.8 1003762
9 мая, вс
вс923:00+4з2269100 0.3 1003705
02:00+4зюз237196 0.4 1003461
05:00+4з3372100 0.3 1003487
08:00+4зюз3371100 0.8 1003749
11:00+4з347197 0.5 1004820
14:00+5зюз457092 0.9 1004797
17:00+5зюз446858 0.2 1004901
20:00+5юз33689 0.3 1004766
10 мая, пн
пн1023:00+4юз22728 0.1 1004401
02:00+4з11755 0.1 1003281
05:00+4ссз12765 0.0 1003323
08:00+4ссз22716 0.0 1004643
11:00+5ссз336813 0.0 1005828
14:00+5ссз33675 0.0 1006806
17:00+6ссв55684 0.0 1007792
20:00+5ссв677218 0.0 1009708